Volver al catálogo

QIANFAN-51

ActivoComunicacionesPO
NORAD 62252·PAYLOAD·🇨🇳 China

Lanzado Dec 5, 2024 desde Taiyuan Satellite Launch Center

Loading…

Próximos Pases (próximas 24 horas)

TLE

ActualizadoSource: Space-Track

Época: Sep 14, 2026, 14:02 UTC

1 62252U 24232R   26257.58492318  .00000091  00000-0  12219-3 0  9990
2 62252  89.0158  13.5517 0015155 121.1007 239.1633 13.51027982105103

Sigue QIANFAN-51 en tiempo real con AllMySat

Download on the App Store